Regional Weather Roundup
Issued by NWS Sioux Falls, SD

Home | Current Version | Previous Version | Text Only | Print | Product List | Glossary On
Versions: 1 2 3 4 5 6 7 8 9 10 11 12 13 14 15 16 17 18 19 20 21 22 23 24 25 26 27 28 29 30 31 32 33 34 35 36 37 38 39 40 41 42 43 44 45 46 47 48 49 50
000
ASUS43 KFSD 010702
RWRFSD

WEATHER ROUNDUP FOR SE SOUTH DAKOTA/SW MINNESOTA/NW IOWA
NATIONAL WEATHER SERVICE SIOUX FALLS SD
200 AM CDT SAT AUG 01 2015

NOTE: "FAIR" INDICATES FEW OR NO CLOUDS BELOW 12,000 FEET WITH NO
SIGNIFICANT WEATHER AND OR OBSTRUCTIONS TO VISIBILITY.


SDZ038>040-050-052>070-010800-
SOUTHEAST SOUTH DAKOTA

CITY           SKY/WX    TMP DP  RH WIND       PRES   REMARKS
BROOKINGS      CLEAR     64  57  77 SW5       30.07S
CHAMBERLAIN    CLEAR     66  63  91 S5        30.06F
HURON          CLEAR     70  62  76 SW12      30.02F
MADISON        FAIR      66  66 100 SW9       30.07S
MITCHELL       CLEAR     70  66  87 S9        30.05F
SIOUX FALLS    CLEAR     71  63  75 SW6       30.06S
WINNER         FAIR      73  63  70 S12       30.08F
YANKTON        CLEAR     70  66  88 SW5       30.06F
$$

MNZ071-072-080-081-089-090-097-098-010800-
SOUTHWEST MINNESOTA

CITY           SKY/WX    TMP DP  RH WIND       PRES   REMARKS
FAIRMONT       CLEAR     64  55  72 SW6       30.03F
JACKSON        CLEAR     66  59  77 SW6       30.05F
LUVERNE        CLEAR     64  61  88 SW7       30.06F
MARSHALL       CLEAR     70  57  64 W15       30.02F
MONTEVIDEO     CLEAR     66  57  72 W3        30.01S
PIPESTONE      CLEAR     64  61  88 W6        30.06F
REDWOOD FALLS  CLEAR     65  59  81 CALM      30.00F
TRACY          CLEAR     68  61  77 SW9       30.02F
WINDOM         CLEAR     64  59  82 W5        30.04F
WORTHINGTON    CLEAR     66  57  72 SW8       30.06S
$$

IAZ001>003-012>014-020>022-031-032-NEZ013-014-SDZ071-010800-
NORTHWEST IOWA

CITY           SKY/WX    TMP DP  RH WIND       PRES   REMARKS
DENISON        PTCLDY    68  64  88 NE5       30.06F
ESTHERVILLE    CLEAR     63  59  87 SW8       30.04F
SIOUX CITY     CLEAR     69  64  84 S5        30.07F
SPENCER        CLEAR     63  57  81 SW7       30.06F
$$

ABBREVIATIONS USED IN REMARKS
   TC - TEMPERATURE IN CELSIUS
  WCI - WIND CHILL INDEX
   HX - HEAT INDEX
  VSB - VISIBILITY



USA.gov is the U.S. government's official web portal to all federal, state and local government web resources and services.